Theta_e
279 280 282 284 286 287 287 289 292 294 296 297 297 296 296 297 298 298 299 301 302 305 307 312 313 316 316 316 316 316 314 314 307 288 289 289 288 290 291 293 296 298 299
279 280 282 284 286 287 288 290 291 293 294 294 294 293 294 295 295 296 296 297 299 300 304 306 310 313 315 316 316 313 314 312 300 288 285 285 286 286 288 288 289 291 296
278 279 281 282 284 286 287 289 290 292 292 291 291 290 291 291 292 292 292 293 294 295 298 304 308 310 312 312 313 311 310 301 297 291 284 285 285 286 285 286 286 286 288
278 278 280 282 284 286 287 288 288 288 288 288 288 288 289 290 290 289 290 289 289 290 291 293 299 307 308 308 305 305 299 297 294 290 285 285 285 285 286 286 283 284 284
277 278 280 282 284 285 286 286 286 286 286 286 286 286 287 288 289 287 287 287 287 287 287 287 289 288 295 302 301 297 297 292 290 289 285 285 284 285 286 284 283 282 282
277 278 280 282 282 283 284 284 285 285 284 285 284 284 285 286 289 289 287 285 285 285 285 285 286 287 290 292 292 294 295 293 289 288 286 286 286 286 285 284 283 283 281
277 280 281 281 281 282 283 283 283 283 284 283 283 284 284 285 287 287 285 284 283 283 284 284 285 285 285 286 288 288 288 290 290 288 287 286 285 285 285 284 284 283 281
277 279 280 280 281 282 282 282 282 283 283 283 283 283 284 285 287 286 285 283 282 282 282 283 283 284 285 285 284 284 284 284 285 285 285 285 285 285 285 285 281 279 279
276 278 280 280 279 279 280 280 281 282 283 283 283 283 283 284 287 286 284 283 282 282 282 282 282 283 285 285 283 281 280 281 286 287 287 287 287 287 284 283 280 280 277
275 278 280 280 280 279 279 279 280 280 280 280 281 283 283 283 286 286 284 283 281 281 282 283 284 283 284 283 281 280 277 276 277 277 276 277 277 279 280 279 281 279 276
277 279 279 280 280 280 280 280 279 279 279 279 279 280 282 283 284 285 284 282 281 281 281 281 283 284 284 283 282 279 277 277 277 274 274 273 273 273 272 273 274 276 274
276 277 277 278 279 279 279 279 279 278 277 277 277 278 279 281 284 284 284 283 282 279 279 280 282 284 283 282 280 280 279 275 273 272 271 270 270 269 269 268 268 268 269
274 274 275 275 277 278 277 276 276 276 275 275 275 275 276 278 279 283 283 282 281 278 278 279 280 279 279 278 279 277 273 272 271 269 268 267 268 269 267 266 266 266 266
269 270 273 274 274 275 276 275 274 273 273 273 273 273 275 276 276 277 278 277 277 276 276 275 276 275 274 271 270 270 270 270 269 268 266 266 266 264 262 264 263 263 263
270 269 270 271 271 273 274 273 274 273 274 271 269 272 273 273 276 279 277 275 274 273 268 269 269 268 267 267 266 266 267 267 265 265 265 264 264 265 263 261 260 258 260
269 269 269 269 268 270 271 276 280 280 280 279 279 276 277 279 281 281 281 280 278 274 264 263 265 265 265 264 263 263 263 263 263 263 262 262 262 262 261 261 260 259 259
267 269 268 269 268 267 267 267 265 272 279 279 279 279 278 278 278 279 281 280 277 270 260 259 261 262 262 262 261 261 260 259 258 259 259 259 259 258 258 257 257 257 254
262 265 266 265 266 265 266 265 264 262 261 262 270 275 276 277 276 276 275 267 259 260 256 255 257 259 259 259 258 257 257 257 256 256 256 254 254 253 254 254 254 251 250
262 262 261 261 261 263 264 263 262 259 258 256 257 265 263 272 272 271 269 256 256 254 252 254 254 255 255 255 254 253 252 253 251 251 250 251 249 252 248 249 252 251 250
259 262 261 260 260 261 261 261 258 257 256 255 254 255 255 258 255 253 254 251 254 252 252 253 249 249 250 251 250 250 250 250 249 249 247 248 247 250 249 248 248 249 248
261 260 261 259 260 261 260 260 259 257 256 253 254 255 264 254 251 251 250 249 250 249 249 249 248 247 246 246 246 247 248 249 247 247 247 246 246 248 246 248 246 246 246
262 261 259 261 260 260 259 259 259 258 257 256 255 258 269 253 252 250 249 248 247 247 248 250 248 248 248 249 249 249 248 247 245 246 247 246 246 245 245 246 245 245 244
261 260 259 256 258 258 257 257 257 258 256 255 255 256 252 251 250 250 250 247 246 246 245 246 248 246 244 245 245 249 250 248 249 248 248 245 244 244 244 245 244 243 244
261 261 261 259 258 258 258 257 256 256 256 255 253 252 253 251 251 251 249 247 246 246 245 246 247 249 246 245 244 243 244 244 244 247 247 245 244 244 242 242 243 243 243
262 260 260 260 258 258 256 255 255 254 254 255 253 250 249 250 250 249 248 247 247 247 247 246 245 246 247 247 245 244 244 253 246 245 243 243 244 244 242 242 242 241 241
260 260 259 257 256 255 255 255 255 254 254 253 252 251 252 252 251 249 247 246 247 247 246 245 246 248 247 247 248 250 251 256 251 251 246 244 244 243 242 244 242 242 242
Wind_Speed
11 13 12 11 11 12 8 9 10 11 7 6 2 2 6 5 5 2 2 5 6 7 7 8 9 11 9 9 9 9 9 6 4 2 3 2 4 3 4 7 6 8 9
11 12 12 11 10 9 8 8 8 8 5 9 6 7 6 5 4 3 3 3 5 7 8 9 10 8 13 12 10 11 10 6 5 5 3 2 3 2 5 7 6 7 8
11 11 12 10 9 8 7 7 6 4 4 4 6 7 5 4 4 3 3 4 4 4 7 10 11 9 13 9 10 9 7 4 5 6 5 2 3 1 4 5 6 8 7
11 10 10 9 8 7 6 6 6 6 5 4 6 6 5 4 3 2 2 3 3 4 5 5 6 9 11 11 8 9 6 7 5 7 4 4 3 2 2 7 5 4 5
11 10 9 8 7 6 5 5 5 6 6 8 7 7 6 5 3 1 3 5 4 7 8 9 9 7 7 11 9 8 10 7 7 8 6 4 5 7 8 3 4 4 5
10 9 8 8 7 7 6 6 6 7 7 8 9 8 6 4 7 6 7 7 7 10 8 9 10 11 10 16 16 13 7 11 9 6 3 9 9 7 5 7 8 4 3
9 10 9 8 8 7 6 7 8 7 8 10 9 8 8 6 13 16 16 8 10 11 11 9 9 8 10 9 23 25 21 21 15 5 11 7 9 4 7 8 4 4 3
9 9 9 9 9 8 8 9 9 8 9 8 8 7 8 9 18 20 21 12 14 13 14 13 15 16 14 6 13 17 17 16 10 9 12 11 11 8 4 5 6 7 6
10 10 9 8 9 9 10 9 8 7 8 8 7 8 10 11 17 18 15 13 16 14 14 14 13 12 20 12 12 15 16 13 23 30 29 26 23 16 10 8 6 7 3
9 8 8 8 8 9 9 9 8 8 9 8 10 10 12 11 20 18 12 8 13 11 13 15 26 16 21 18 9 10 13 12 10 14 12 16 16 16 19 9 3 3 3
7 7 8 8 8 8 8 8 8 9 10 10 12 12 12 12 16 22 21 10 8 9 10 10 10 21 19 20 21 10 9 10 15 12 10 9 10 11 8 8 9 3 3
5 5 6 7 6 6 8 8 9 8 9 9 9 9 10 10 17 20 22 21 15 9 11 8 10 21 21 21 15 18 19 15 8 9 9 8 8 7 7 7 9 10 9
4 5 6 7 7 7 7 7 6 7 7 7 7 6 6 7 8 19 20 20 20 13 10 16 18 19 19 16 20 18 11 8 8 9 8 7 4 3 2 4 6 8 12
4 5 4 5 6 6 6 5 5 5 5 5 5 5 5 6 5 5 6 7 13 11 13 8 13 16 17 12 10 11 7 7 8 8 5 3 2 3 2 1 1 2 5
3 3 4 3 4 4 5 3 5 4 5 3 3 3 4 5 4 7 7 5 6 9 5 3 4 5 6 6 6 7 6 7 8 5 5 5 4 5 5 4 4 4 5
3 2 2 2 3 3 3 6 13 12 11 12 11 7 3 10 10 9 9 12 11 7 5 4 6 6 6 5 5 6 7 7 6 5 4 5 5 6 6 5 6 5 6
4 4 2 2 2 2 2 3 2 6 12 13 12 10 8 9 8 9 11 13 8 7 4 2 3 4 4 5 5 5 5 4 3 5 5 4 5 5 4 4 4 4 3
3 4 3 3 3 3 3 2 2 2 2 2 8 9 9 8 8 7 8 9 5 7 4 3 4 4 4 5 4 3 3 4 4 4 5 4 3 3 3 4 3 3 3
5 3 3 3 2 2 2 2 2 2 2 1 3 3 8 11 9 9 7 4 4 3 2 3 2 3 3 3 3 3 3 3 2 3 3 3 3 4 4 3 4 4 4
4 5 4 3 3 2 2 3 3 3 2 1 2 2 4 5 5 4 4 3 4 3 3 4 2 3 3 3 3 3 3 3 3 3 3 3 3 3 3 3 3 3 2
4 4 5 3 3 3 3 3 2 2 2 1 2 2 5 3 2 2 2 2 3 2 3 3 2 3 2 2 3 3 3 2 2 3 3 2 3 3 2 3 3 3 3
5 5 4 5 4 4 4 3 4 4 4 4 3 3 9 2 2 3 2 2 2 2 2 3 3 3 3 4 4 4 3 4 2 3 3 3 3 3 3 3 3 2 2
5 5 4 3 3 4 3 3 4 4 4 4 4 3 3 3 3 3 4 3 3 3 3 3 4 3 3 3 3 4 5 4 5 5 5 4 3 3 3 3 3 2 2
7 7 7 5 4 4 4 5 4 5 5 4 4 3 4 3 4 4 3 3 3 3 3 3 3 4 4 3 3 3 3 3 3 5 6 5 4 4 3 2 3 4 3
7 7 7 7 6 5 5 4 4 4 4 4 4 3 3 3 3 3 3 3 3 3 3 3 3 4 5 5 5 5 5 6 5 5 4 4 5 6 4 3 4 3 3
7 6 5 4 4 4 4 4 4 4 4 4 3 4 4 4 3 3 3 3 3 3 3 3 4 6 6 5 6 7 6 8 7 8 5 4 4 4 3 5 5 3 4
Wind_Direction
309 308 298 291 291 291 287 293 299 299 314 287 332 84 60 45 335 332 283 283 278 274 270 264 247 223 205 205 201 205 201 183 143 57 86 62 59 73 55 54 53 71 61
310 310 301 296 290 289 294 290 285 273 326 359 341 45 37 21 354 327 287 269 273 268 272 256 248 234 223 210 206 197 193 178 124 142 134 126 98 50 76 86 62 55 67
316 315 311 303 298 297 294 303 310 328 33 13 26 39 24 14 352 347 307 286 283 287 283 267 246 221 220 213 202 192 174 139 132 136 132 151 110 161 98 77 71 73 57
319 316 313 315 312 312 321 332 354 26 32 43 45 40 23 6 13 343 333 15 11 27 359 341 306 223 199 202 195 177 146 141 128 125 96 113 114 122 136 121 92 56 74
324 324 324 324 327 335 355 2 14 35 40 46 53 45 25 20 6 255 102 72 52 59 36 26 27 13 297 191 176 176 153 136 139 135 128 137 136 158 164 131 114 105 56
328 333 337 346 358 3 16 29 37 47 53 58 55 54 43 30 67 94 87 76 64 59 45 39 30 32 54 89 90 94 121 152 136 131 148 147 154 141 134 138 132 135 124
341 348 358 1 15 17 25 42 43 48 59 59 57 59 57 63 84 82 79 73 70 62 55 47 57 45 36 44 83 72 75 77 73 113 138 125 126 116 137 131 95 84 87
355 356 7 15 20 22 33 38 41 47 48 49 43 45 61 66 79 82 78 73 70 61 57 44 50 43 31 5 82 84 64 64 80 83 87 88 91 96 95 96 97 97 84
359 2 8 16 26 29 35 36 33 49 55 56 49 49 58 55 61 73 78 73 73 65 61 58 56 57 51 35 53 83 83 75 69 77 78 82 86 90 100 110 110 122 98
347 357 10 19 30 37 34 37 37 48 52 47 42 47 47 52 54 55 62 75 76 71 57 53 59 55 56 52 58 60 66 61 65 62 51 52 53 55 54 49 68 111 126
337 6 16 15 28 31 41 38 42 46 48 46 47 37 43 44 52 55 57 53 67 72 68 57 61 71 69 68 64 59 81 87 71 76 71 59 46 44 41 42 48 48 119
351 20 24 20 24 25 37 36 39 40 45 38 42 45 33 37 63 65 64 66 63 79 74 74 77 78 75 73 81 88 85 78 72 72 68 56 61 52 44 49 56 63 55
28 33 21 26 28 28 36 35 39 37 42 39 42 44 42 38 41 62 73 71 62 56 58 69 64 67 67 64 67 67 51 60 74 72 68 58 53 80 66 43 59 70 66
56 39 34 47 47 36 44 44 53 43 45 43 46 44 40 47 43 43 55 64 71 71 78 73 84 79 74 63 45 47 49 51 72 78 72 61 24 37 50 286 83 45 67
68 60 43 39 39 51 59 59 63 57 72 62 28 26 42 34 26 70 71 64 76 90 85 77 84 85 85 79 75 63 58 61 75 75 80 79 65 63 42 10 38 38 68
110 65 80 70 24 35 35 88 83 86 91 86 76 62 15 57 58 70 113 102 104 94 46 46 50 47 55 49 58 64 49 52 55 73 72 69 68 67 64 43 54 64 81
158 160 150 118 105 104 51 49 65 19 60 72 64 72 71 66 64 46 71 86 72 75 82 71 100 95 88 72 63 54 61 41 45 63 68 64 73 66 67 58 55 63 56
175 169 154 175 166 160 156 147 120 123 114 339 16 41 61 61 75 76 71 48 30 30 52 65 65 56 56 72 70 80 80 62 54 59 63 64 66 102 85 74 61 89 74
173 184 167 157 174 181 153 134 153 140 145 146 347 23 12 55 62 63 72 96 125 112 108 100 110 113 105 101 99 90 105 103 115 105 77 82 70 83 68 66 77 70 102
186 180 167 161 157 149 148 147 142 151 150 140 6 298 345 15 26 13 33 57 77 75 79 93 75 84 104 118 115 105 90 79 77 76 79 86 82 99 110 118 95 102 67
179 173 165 153 175 180 165 177 158 134 153 183 249 257 204 130 173 105 89 81 115 121 131 127 135 125 123 119 109 107 99 104 107 117 116 109 113 92 101 91 105 95 119
172 169 171 185 166 174 184 171 170 167 170 177 213 254 149 103 129 140 149 173 198 179 168 147 157 172 175 167 160 144 146 154 162 148 141 141 136 124 140 126 140 138 141
168 166 172 176 176 166 161 173 173 179 183 189 165 149 139 159 160 166 174 181 182 183 187 161 157 180 204 191 182 164 158 184 192 166 154 154 158 159 157 150 152 146 159
170 176 180 182 173 183 178 182 190 188 184 175 167 168 165 170 174 183 185 183 178 185 182 178 181 179 184 196 198 202 199 179 164 177 162 157 172 166 152 153 172 183 170
173 171 178 182 184 186 174 177 185 184 179 177 181 174 183 172 174 193 186 184 183 182 207 203 201 205 210 217 223 222 218 222 189 184 167 165 186 181 180 182 182 187 184
172 173 175 158 173 176 175 175 186 173 185 188 183 186 182 188 195 184 182 183 198 219 224 216 220 224 230 233 236 236 226 223 215 206 186 175 188 204 185 210 207 198 199